sat.trackr.live / text

‹ back to catalog

QIANFAN-178

NORAD 69395 · 2026-124P

PAYLOAD ACTIVE UNKNOWN

§ Identity

Operator
Country
PRC
Launch date
2026-06-04
Launch site
TAISC
Launch vehicle
Mass (kg)
RCS (m²)

External: N2YO · Heavens-Above · Gunter

§ Orbital elements

Epoch: 2026-09-20T05:08:53.950848Z

Period
106.59 min
Inclination
89.0011°
Eccentricity
0.0001841
Mean motion
13.51026405 rev/d
Perigee alt
1,067.1 km
Apogee alt
1,069.9 km
Semi-major
7,446.6 km
B*
1.4480e-4
RAAN
351.9456°
Arg perigee
102.0874°
Mean anomaly
258.0484°
Rev number
1,491

§ Raw data

QIANFAN-1781 69395U 26124P   26263.21451332  .00000106  00000+0  14480-3 0  99932 69395  89.0011 351.9456 0001841 102.0874 258.0484 13.51026405 14915

JSON: /api/v1/satellites/69395 · /tle

For live sub-satellite position, see the globe view (requires WebGL).

§ Visibility from observer

Set your observer location to see the next 7 days of passes ≥ 10°. The values pass through the URL so the page stays shareable.

No JS? Fill the form by hand. The geolocation button needs JavaScript.